TimeCDT,TemperatureF,Dew PointF,Humidity,Sea Level PressureIn,VisibilityMPH,Wind Direction,Wind SpeedMPH,Gust SpeedMPH,PrecipitationIn,Events,Conditions,WindDirDegrees,DateUTC
12:58 AM,66.9,66.9,100,29.98,10.0,NW,6.9,-,N/A,,Clear,320,2013-05-12 05:58:00
1:58 AM,66.9,66.9,100,29.98,10.0,NW,6.9,-,N/A,,Clear,320,2013-05-12 06:58:00
2:58 AM,67.1,67.1,100,29.98,10.0,Calm,Calm,-,N/A,,Clear,350,2013-05-12 07:58:00
3:58 AM,63.7,63.7,100,29.99,10.0,Variable,1.2,-,N/A,,Clear,0,2013-05-12 08:58:00
4:33 AM,62.6,62.6,100,29.98,9.0,NW,3.5,-,N/A,,Clear,320,2013-05-12 09:33:00
4:43 AM,62.6,62.6,100,29.98,10.0,NNW,5.8,-,N/A,,Clear,330,2013-05-12 09:43:00
4:58 AM,63.3,63.3,100,30.00,10.0,NNW,5.8,-,N/A,,Clear,330,2013-05-12 09:58:00
5:58 AM,65.3,65.3,100,30.03,10.0,Variable,5.8,-,0.01,,Clear,0,2013-05-12 10:58:00
6:18 AM,66.2,66.2,100,30.03,10.0,North,8.1,-,N/A,,Mostly Cloudy,10,2013-05-12 11:18:00
6:58 AM,66.0,66.0,100,30.05,10.0,Variable,4.6,-,N/A,,Mostly Cloudy,0,2013-05-12 11:58:00
7:03 AM,66.2,66.2,100,30.04,10.0,North,2.3,-,N/A,,Scattered Clouds,10,2013-05-12 12:03:00
7:58 AM,68.4,68.4,100,30.06,10.0,NE,5.8,-,N/A,,Clear,50,2013-05-12 12:58:00
8:58 AM,71.6,68.4,89,30.06,10.0,NE,5.8,-,N/A,,Clear,40,2013-05-12 13:58:00
9:58 AM,74.1,69.1,84,30.07,10.0,NE,3.5,-,N/A,,Partly Cloudy,50,2013-05-12 14:58:00
10:58 AM,77.0,70.5,80,30.07,10.0,NW,4.6,-,0.01,,Mostly Cloudy,310,2013-05-12 15:58:00
11:58 AM,78.8,71.2,78,30.06,10.0,Variable,3.5,-,N/A,,Clear,0,2013-05-12 16:58:00
12:58 PM,79.5,71.2,76,30.05,10.0,NW,6.9,-,N/A,,Mostly Cloudy,310,2013-05-12 17:58:00
1:58 PM,77.0,72.3,85,30.05,10.0,West,15.0,-,N/A,,Scattered Clouds,260,2013-05-12 18:58:00
2:58 PM,77.9,71.8,81,30.03,10.0,West,12.7,-,N/A,,Partly Cloudy,260,2013-05-12 19:58:00
3:58 PM,77.5,70.9,80,30.03,10.0,West,15.0,-,N/A,,Clear,270,2013-05-12 20:58:00
4:58 PM,75.4,69.3,81,30.03,10.0,West,10.4,-,N/A,,Partly Cloudy,280,2013-05-12 21:58:00
5:58 PM,73.8,70.5,90,30.03,10.0,West,13.8,-,N/A,,Clear,270,2013-05-12 22:58:00
6:58 PM,72.5,70.2,92,30.04,10.0,West,8.1,-,N/A,,Partly Cloudy,280,2013-05-12 23:58:00
7:58 PM,70.9,68.5,92,30.06,10.0,NW,4.6,-,N/A,,Partly Cloudy,310,2013-05-13 00:58:00
8:58 PM,69.1,67.8,96,30.07,10.0,Calm,Calm,-,N/A,,Clear,360,2013-05-13 01:58:00
9:58 PM,69.3,64.6,85,30.08,10.0,NNW,4.6,-,N/A,,Scattered Clouds,340,2013-05-13 02:58:00
10:58 PM,68.5,63.5,84,30.09,10.0,NNW,9.2,-,N/A,,Clear,340,2013-05-13 03:58:00
11:55 PM,68.0,60.8,78,30.08,10.0,North,5.8,-,N/A,,Clear,350,2013-05-13 04:55:00